Hutchinson, KS

7:12 AM CDT on October 23, 2017 (GMT -0500)
Hutchinson Municipal

Weather History for KHUT - April, 2014

Change the Weather History Date:

Wednesday, April 30, 2014

  Actual Average Record
Temperature  
Mean Temperature 48 °F -  
Max Temperature 59 °F 70 °F 86 °F (2013)
Min Temperature 39 °F 45 °F 28 °F (2005)
Degree Days  
Heating Degree Days 17    
Moisture  
Dew Point 29 °F    
Average Humidity 51    
Maximum Humidity 74    
Minimum Humidity 28    
Precipitation  
Precipitation 0.00 in - - ()
Sea Level Pressure  
Sea Level Pressure 30.04 in    
Wind  
Wind Speed 17 mph (NW)    
Max Wind Speed 24 mph    
Max Gust Speed 36 mph    
Visibility 10 miles    
Events      
Averages and records for this station are not official NWS values.
T = Trace of Precipitation, MM = Missing Value Source: NWS Daily Summary

Daily Weather History Graph

Daily Weather History Graph

Search for Another Location

Airport or City:

Trip Planner

Search our weather history database for the weather conditions in past years. The results will help you decide how hot, cold, wet, or windy it might be!

Date:

Astronomy

Apr. 30, 2014 Rise Set
Actual Time 6:36 AM CDT 8:21 PM CDT
Civil Twilight 6:08 AM CDT 8:49 PM CDT
Nautical Twilight 5:33 AM CDT 9:24 PM CDT
Astronomical Twilight 4:57 AM CDT 10:00 PM CDT
Moon 7:39 AM CDT (4/30) 10:00 PM CDT (4/30)
Length of Visible Light 14h 41m
Length of Day
13h 45m
New Moon, 2% of the Moon is Illuminated
Apr 30
New Moon
May 6
First Quarter
May 14
Full
May 21
Last Quarter
May 28
New

Hourly Weather History & Observations

Time (CDT) Temp. Windchill Dew Point Humidity Pressure Visibility Wind Dir Wind Speed Gust Speed Precip Events Conditions
12:41 AM 44.1 °F 37.1 °F 35.1 °F 71% 30.00 in 10.0 mi NW 15.0 mph - N/A   Overcast
12:52 AM 44.1 °F 36.8 °F 35.1 °F 71% 29.99 in 10.0 mi NW 16.1 mph - N/A   Overcast
1:52 AM 44.1 °F 37.1 °F 35.1 °F 71% 30.00 in 10.0 mi NW 15.0 mph - N/A   Overcast
2:08 AM 43.0 °F 36.0 °F 35.1 °F 74% 30.01 in 10.0 mi NW 13.8 mph - N/A   Mostly Cloudy
2:52 AM 43.0 °F 34.8 °F 34.0 °F 71% 30.00 in 10.0 mi NW 18.4 mph 26.5 mph N/A   Overcast
3:52 AM 42.1 °F 33.3 °F 33.1 °F 70% 30.01 in 10.0 mi NW 19.6 mph - N/A   Overcast
4:52 AM 41.0 °F 32.8 °F 33.1 °F 73% 30.03 in 10.0 mi NW 16.1 mph - N/A   Partly Cloudy
5:52 AM 39.9 °F 30.8 °F 32.0 °F 73% 30.04 in 10.0 mi NW 18.4 mph - N/A   Clear
6:52 AM 41.0 °F 32.8 °F 33.1 °F 73% 30.06 in 10.0 mi NW 16.1 mph 23.0 mph N/A   Scattered Clouds
7:52 AM 43.0 °F 34.5 °F 32.0 °F 65% 30.06 in 10.0 mi NW 19.6 mph 31.1 mph N/A   Overcast
8:52 AM 45.0 °F 36.4 °F 32.0 °F 60% 30.08 in 10.0 mi NNW 23.0 mph 34.5 mph N/A   Partly Cloudy
10:52 AM 52.0 °F - 26.1 °F 37% 30.07 in 10.0 mi NNW 20.7 mph 34.5 mph N/A   Scattered Clouds
11:52 AM 53.1 °F - 23.0 °F 31% 30.08 in 10.0 mi NNW 24.2 mph 35.7 mph N/A   Mostly Cloudy
12:52 PM 55.0 °F - 25.0 °F 31% 30.06 in 10.0 mi NW 16.1 mph - N/A   Mostly Cloudy
1:52 PM 57.9 °F - 25.0 °F 28% 30.05 in 10.0 mi NW 19.6 mph 33.4 mph N/A   Mostly Cloudy
2:52 PM 55.9 °F - 25.0 °F 30% 30.05 in 10.0 mi NW 19.6 mph 33.4 mph N/A   Overcast
3:52 PM 55.0 °F - 25.0 °F 31% 30.04 in 10.0 mi NW 17.3 mph 27.6 mph N/A   Overcast
4:52 PM 55.0 °F - 27.0 °F 34% 30.03 in 10.0 mi NW 21.9 mph 31.1 mph N/A   Overcast
5:52 PM 55.0 °F - 26.1 °F 33% 30.03 in 10.0 mi NW 21.9 mph 31.1 mph N/A   Overcast
6:52 PM 55.0 °F - 26.1 °F 33% 30.03 in 10.0 mi NNW 16.1 mph 25.3 mph N/A   Overcast
7:52 PM 52.0 °F - 25.0 °F 35% 30.04 in 10.0 mi NNW 18.4 mph 24.2 mph N/A   Mostly Cloudy
8:52 PM 50.0 °F - 26.1 °F 39% 30.05 in 10.0 mi NNW 12.7 mph - N/A   Overcast
9:52 PM 48.0 °F - 26.1 °F 42% 30.08 in 10.0 mi NW 8.1 mph - N/A   Mostly Cloudy
10:52 PM 45.0 °F 40.6 °F 27.0 °F 49% 30.08 in 10.0 mi NW 8.1 mph - N/A   Mostly Cloudy
11:52 PM 43.0 °F 38.2 °F 28.0 °F 56% 30.08 in 10.0 mi WNW 8.1 mph - N/A   Partly Cloudy